"Pseudo-MPEC" for C0YY4L2

Created 2019 Sep 17 6:07:03 UT using Find_Orb

Click here for an explanation of pseudo-MPECs

 
 Astrometry: 
     C0YY4L2  C2019 09 07.32279 23 07 09.70 -15 06 22.1    ~978q 21.1 GVNEOCPG96
     C0YY4L2  C2019 09 07.32748 23 07 11.78 -15 06 43.9    ~978q 20.8 GVNEOCPG96
     C0YY4L2  C2019 09 07.33217 23 07 13.93 -15 07 06.6    ~978q 22.0 GVNEOCPG96
     C0YY4L2  C2019 09 07.33688 23 07 16.08 -15 07 28.7    ~978q 20.5 GVNEOCPG96
     C0YY4L2  C2019 09 07.42267 23 07 55.19 -15 14 15.7    ~97Ab 21.4 GVNEOCPG96
     C0YY4L2  C2019 09 07.42342 23 07 55.45 -15 14 19.9    ~97Ab       VNEOCPG96
     C0YY4L2  C2019 09 07.42493 23 07 56.23 -15 14 26.4    ~97Ab 20.7 GVNEOCPG96
     C0YY4L2 |C2019 09 089dy^V'B\gJX38/G\'hlAstrometryU#1redacted;3Y!clickUc0807
     C0YY4L2 |C2019 09 08lmI1FagM^Jn.([k(\MqO(N/m;hnp+%=x(NDD;K(?t6here/jm8'@807
     C0YY4L2 |C2019 09 08c0forIk?,aeVmexplanationjMEL!DpqoxjChlS3`E:Z.J]SCT_*807

Station data:
(807) Cerro Tololo Observatory, La Serena  (S30.169136 W70.805900)  Chile.
(G96) Mt. Lemmon Survey  (N32.442754 W110.788720)  US/Arizona.  Observers T.
   A. Pruyne, B. M. Africano, E. J. Christensen, G. A. Farneth, D. C. Fuls,
   A. R. Gibbs, A. D. Grauer, H. Groeller, J. A. Johnson, R. A. Kowalski, S.
   M. Larson, G. J. Leonard, D. Rankin, R. L. Seaman, F. C. Shelly. 1.5-m
   reflector + 10K CCD.

Orbital elements:  C0YY4L2
   Perihelion 2019 Aug 20.373034 +/- 0.796 TT =  8:57:10 (JD 2458715.873034)
Epoch 2019 Sep  8.0 TT = JDT 2458734.5   Earth MOID: 0.1041   AutoNEOCP
M   4.16601256 +/- 0.39             (J2000 ecliptic)
n   0.22365492 +/- 0.013            Peri.  165.16805 +/- 0.8
a   2.68792455 +/- 0.104            Node   159.95633 +/- 0.025
e   0.5883476 +/- 0.0146            Incl.   13.35879 +/- 0.20
P   4.41                   H 25.1   G  0.15   U  9.8  
q 1.10649036 +/- 0.00402    Q 4.26935875 +/- 0.197
From 10 observations 2019 Sept. 7-8 (23.0 hr); mean residual 0".34
Residuals in arcseconds: 
190907 G96  .33+  .51-    190907 G96  .40+  .26+    190908 807  .01+  .25-    
190907 G96  .38-  .17+    190907 G96  .81-  .41-    190908 807  .28-  .11-    
190907 G96  .09-  .06-    190907 G96  .46+  .19+    
190907 G96  .08+  .37+    190908 807  .27+  .36+    

Ephemerides (geocentric):
Date (UTC) HH   RA              Dec         delta   r     elong  mag " sig PA
---- -- -- --  -------------   -----------  ------ ------ -----  --- ---- ---
2019 09 17 06  00 10 03.716   -24 05 56.89  .16588 1.1597 157.0 22.5  291 118
2019 09 17 07  00 10 15.618   -24 07 19.36  .16610 1.1599 156.9 22.5  293 118
2019 09 17 08  00 10 27.490   -24 08 41.48  .16632 1.1600 156.9 22.5  295 118
2019 09 17 09  00 10 39.333   -24 10 03.25  .16653 1.1602 156.8 22.6  297 118
2019 09 17 10  00 10 51.147   -24 11 24.67  .16675 1.1603 156.8 22.6  298 118
2019 09 17 11  00 11 02.932   -24 12 45.74  .16697 1.1605 156.8 22.6  300 118
2019 09 17 12  00 11 14.688   -24 14 06.46  .16719 1.1606 156.7 22.6  302 118
2019 09 17 13  00 11 26.415   -24 15 26.84  .16741 1.1608 156.7 22.6  304 118
2019 09 17 14  00 11 38.113   -24 16 46.87  .16763 1.1609 156.6 22.6  306 118
2019 09 17 15  00 11 49.782   -24 18 06.55  .16785 1.1611 156.6 22.6  308 118
2019 09 17 16  00 12 01.422   -24 19 25.90  .16807 1.1612 156.6 22.6  310 118
2019 09 17 17  00 12 13.033   -24 20 44.90  .16829 1.1614 156.5 22.6  311 118
2019 09 17 18  00 12 24.616   -24 22 03.56  .16851 1.1616 156.5 22.6  313 118
2019 09 17 19  00 12 36.170   -24 23 21.88  .16873 1.1617 156.4 22.6  315 118
2019 09 17 20  00 12 47.695   -24 24 39.86  .16895 1.1619 156.4 22.6  317 118
2019 09 17 21  00 12 59.192   -24 25 57.51  .16917 1.1620 156.4 22.6  319 118
2019 09 17 22  00 13 10.660   -24 27 14.81  .16939 1.1622 156.3 22.6  321 118
2019 09 17 23  00 13 22.100   -24 28 31.79  .16961 1.1623 156.3 22.6  323 118
2019 09 18 00  00 13 33.511   -24 29 48.42  .16983 1.1625 156.2 22.6  325 118
2019 09 18 01  00 13 44.894   -24 31 04.73  .17005 1.1627 156.2 22.6  326 118
2019 09 18 02  00 13 56.249   -24 32 20.70  .17027 1.1628 156.2 22.6  328 118
2019 09 18 03  00 14 07.576   -24 33 36.34  .17050 1.1630 156.1 22.6  330 118
2019 09 18 04  00 14 18.874   -24 34 51.65  .17072 1.1631 156.1 22.6  332 118
2019 09 18 05  00 14 30.144   -24 36 06.63  .17094 1.1633 156.1 22.6  334 118
2019 09 18 06  00 14 41.386   -24 37 21.29  .17116 1.1634 156.0 22.6  336 118
2019 09 18 07  00 14 52.600   -24 38 35.61  .17139 1.1636 156.0 22.6  338 118
2019 09 18 08  00 15 03.787   -24 39 49.61  .17161 1.1638 155.9 22.6  339 118
2019 09 18 09  00 15 14.945   -24 41 03.29  .17183 1.1639 155.9 22.6  341 117
2019 09 18 10  00 15 26.075   -24 42 16.64  .17206 1.1641 155.9 22.7  343 117
2019 09 18 11  00 15 37.178   -24 43 29.67  .17228 1.1642 155.8 22.7  345 117
2019 09 18 12  00 15 48.253   -24 44 42.38  .17250 1.1644 155.8 22.7  347 117
2019 09 18 13  00 15 59.300   -24 45 54.76  .17273 1.1646 155.8 22.7  349 117
2019 09 18 14  00 16 10.320   -24 47 06.83  .17295 1.1647 155.7 22.7  351 117
2019 09 18 15  00 16 21.312   -24 48 18.58  .17318 1.1649 155.7 22.7  353 117
2019 09 18 16  00 16 32.277   -24 49 30.01  .17340 1.1650 155.6 22.7  354 117
2019 09 18 17  00 16 43.214   -24 50 41.12  .17363 1.1652 155.6 22.7  356 117
2019 09 18 18  00 16 54.124   -24 51 51.92  .17385 1.1654 155.6 22.7  358 117
2019 09 18 19  00 17 05.006   -24 53 02.40  .17408 1.1655 155.5 22.7  360 117
2019 09 18 20  00 17 15.861   -24 54 12.57  .17431 1.1657 155.5 22.7  362 117
2019 09 18 21  00 17 26.689   -24 55 22.43  .17453 1.1658 155.5 22.7  364 117
2019 09 18 22  00 17 37.490   -24 56 31.98  .17476 1.1660 155.4 22.7  366 117
2019 09 18 23  00 17 48.264   -24 57 41.21  .17498 1.1662 155.4 22.7  367 117
2019 09 19 00  00 17 59.011   -24 58 50.14  .17521 1.1663 155.4 22.7  369 117
2019 09 19 01  00 18 09.730   -24 59 58.75  .17544 1.1665 155.3 22.7  371 117
2019 09 19 02  00 18 20.423   -25 01 07.06  .17566 1.1666 155.3 22.7  373 117
2019 09 19 03  00 18 31.089   -25 02 15.07  .17589 1.1668 155.3 22.7  375 117
2019 09 19 04  00 18 41.728   -25 03 22.76  .17612 1.1670 155.2 22.7  377 117
2019 09 19 05  00 18 52.340   -25 04 30.16  .17635 1.1671 155.2 22.7  379 117